User: anonymous
Location: Unspecified
(0.0000°N, 0.0000°E)
Time: 04:19:10
(UTC+02:00)
Language:

Sapphire - Orbit

View from above orbital plane
View from above orbital plane
View from above satellite
View from above satellite

Ground track
Ground track

The orbit data is extracted from the following two-line orbital elements,

1 26932U 01043D   14265.09577539  .00000040  00000-0  47409-4 0  7162
2 26932 067.0561 149.6071 0007216 292.2644 067.7692 14.30031586677505
Epoch (UTC): 22 September 2014 02:17:54
Eccentricity: 0.0007216
inclination: 67.0561°
perigee height: 786 km
apogee height: 797 km
right ascension of ascending node: 149.6071°
argument of perigee: 292.2644°
revolutions per day: 14.30031586
mean anomaly at epoch: 67.7692°
orbit number at epoch: 67750

The dashed part of the orbit path shows where the satellite is in the earth's shadow,  

DLR